Time,TemperatureF,DewpointF,PressureIn,WindDirection,WindDirectionDegrees,WindSpeedMPH,WindSpeedGustMPH,Humidity,HourlyPrecipIn,Conditions,Clouds,dailyrainin,SoftwareType,DateUTC
2013-07-10 00:01:00,75.4,72.6,30.02,SSW,204,0.0,0.0,91,0.00,,---,0.00,VWS V14.01,2013-07-10 04:01:00,
2013-07-10 00:02:00,75.5,72.7,30.02,SSW,204,0.0,0.0,91,0.00,,---,0.00,VWS V14.01,2013-07-10 04:02:00,
2013-07-10 00:07:00,75.3,72.5,30.02,SSW,205,0.0,3.0,91,0.00,,---,0.00,VWS V14.01,2013-07-10 04:07:00,
2013-07-10 00:12:00,75.3,72.5,30.02,SSW,202,0.0,3.0,91,0.00,,---,0.00,VWS V14.01,2013-07-10 04:12:00,
2013-07-10 00:17:00,75.2,72.7,30.02,SSW,202,1.0,3.0,92,0.00,,---,0.00,VWS V14.01,2013-07-10 04:17:00,
2013-07-10 00:22:00,75.2,72.4,30.02,South,190,2.0,5.0,91,0.00,,---,0.00,VWS V14.01,2013-07-10 04:22:00,
2013-07-10 00:27:00,75.1,72.3,30.02,SSW,200,1.0,7.0,91,0.00,,---,0.00,VWS V14.01,2013-07-10 04:27:00,
2013-07-10 00:32:00,75.0,71.9,30.01,SW,235,3.0,5.0,90,0.00,,---,0.00,VWS V14.01,2013-07-10 04:32:00,
2013-07-10 00:38:00,74.9,71.4,30.01,SW,235,0.0,7.0,89,0.00,,---,0.00,VWS V14.01,2013-07-10 04:38:00,
2013-07-10 00:43:00,74.9,71.4,30.01,SSW,200,2.0,6.0,89,0.00,,---,0.00,VWS V14.01,2013-07-10 04:43:00,
2013-07-10 00:48:00,74.8,71.0,30.01,SSW,207,0.0,7.0,88,0.00,,---,0.00,VWS V14.01,2013-07-10 04:48:00,
2013-07-10 00:53:00,74.7,70.9,30.01,SSW,207,3.0,4.0,88,0.00,,---,0.00,VWS V14.01,2013-07-10 04:53:00,
2013-07-10 00:58:00,74.5,70.7,30.01,SSW,207,1.0,5.0,88,0.00,,---,0.00,VWS V14.01,2013-07-10 04:58:00,
2013-07-10 01:03:00,74.4,70.6,30.01,SSW,207,1.0,1.0,88,0.00,,---,0.00,VWS V14.01,2013-07-10 05:03:00,
2013-07-10 01:08:00,74.2,70.4,30.01,SSW,207,0.0,4.0,88,0.00,,---,0.00,VWS V14.01,2013-07-10 05:08:00,
2013-07-10 01:13:00,74.0,70.6,30.01,SSW,207,1.0,5.0,89,0.00,,---,0.00,VWS V14.01,2013-07-10 05:13:00,
2013-07-10 01:18:00,73.9,70.1,30.01,SSW,207,0.0,5.0,88,0.00,,---,0.00,VWS V14.01,2013-07-10 05:18:00,
2013-07-10 01:23:00,73.6,70.2,30.01,SSW,207,0.0,3.0,89,0.00,,---,0.00,VWS V14.01,2013-07-10 05:23:00,
2013-07-10 01:28:00,73.4,70.0,30.01,SSW,207,0.0,3.0,89,0.00,,---,0.00,VWS V14.01,2013-07-10 05:28:00,
2013-07-10 01:33:00,73.3,69.9,30.01,SSW,207,0.0,2.0,89,0.00,,---,0.00,VWS V14.01,2013-07-10 05:33:00,
2013-07-10 01:39:00,73.1,69.7,30.01,SSW,207,0.0,2.0,89,0.00,,---,0.00,VWS V14.01,2013-07-10 05:39:00,
2013-07-10 01:44:00,73.1,69.7,30.01,SSW,207,0.0,4.0,89,0.00,,---,0.00,VWS V14.01,2013-07-10 05:44:00,
2013-07-10 01:49:00,73.0,69.6,30.01,SSW,207,0.0,4.0,89,0.00,,---,0.00,VWS V14.01,2013-07-10 05:49:00,
2013-07-10 01:54:00,72.8,69.7,30.01,SSW,207,0.0,0.0,90,0.00,,---,0.00,VWS V14.01,2013-07-10 05:54:00,
2013-07-10 01:59:00,72.6,69.2,30.01,SSW,207,0.0,1.0,89,0.00,,---,0.00,VWS V14.01,2013-07-10 05:59:00,
2013-07-10 02:04:00,72.5,69.4,30.01,SSW,207,0.0,1.0,90,0.00,,---,0.00,VWS V14.01,2013-07-10 06:04:00,
2013-07-10 02:09:00,72.3,69.2,30.01,SSW,207,0.0,1.0,90,0.00,,---,0.00,VWS V14.01,2013-07-10 06:09:00,
2013-07-10 02:14:00,72.2,69.4,30.01,SSW,207,1.0,1.0,91,0.00,,---,0.00,VWS V14.01,2013-07-10 06:14:00,
2013-07-10 02:19:00,72.0,69.2,30.01,SSW,207,0.0,1.0,91,0.00,,---,0.00,VWS V14.01,2013-07-10 06:19:00,
2013-07-10 02:25:00,71.9,69.4,30.01,SSW,207,0.0,1.0,92,0.00,,---,0.00,VWS V14.01,2013-07-10 06:25:00,
2013-07-10 02:30:00,71.7,69.3,30.00,SSW,207,0.0,1.0,92,0.00,,---,0.00,VWS V14.01,2013-07-10 06:30:00,
2013-07-10 02:35:00,71.5,69.4,30.00,SSW,207,0.0,0.0,93,0.00,,---,0.00,VWS V14.01,2013-07-10 06:35:00,
2013-07-10 02:40:00,71.4,69.3,30.00,SSW,207,0.0,1.0,93,0.00,,---,0.00,VWS V14.01,2013-07-10 06:40:00,
2013-07-10 02:45:00,71.3,69.2,29.99,SSW,207,0.0,1.0,93,0.00,,---,0.00,VWS V14.01,2013-07-10 06:45:00,
2013-07-10 02:50:00,71.2,69.4,29.99,SSW,207,0.0,1.0,94,0.00,,---,0.00,VWS V14.01,2013-07-10 06:50:00,
2013-07-10 02:55:00,71.1,69.3,29.99,SSW,207,0.0,1.0,94,0.00,,---,0.00,VWS V14.01,2013-07-10 06:55:00,
2013-07-10 03:00:00,71.0,69.2,29.99,SSW,207,0.0,1.0,94,0.00,,---,0.00,VWS V14.01,2013-07-10 07:00:00,
2013-07-10 03:05:00,70.9,69.1,29.99,SSW,207,0.0,1.0,94,0.00,,---,0.00,VWS V14.01,2013-07-10 07:05:00,
2013-07-10 03:10:00,70.9,69.1,29.99,SSW,207,0.0,1.0,94,0.00,,---,0.00,VWS V14.01,2013-07-10 07:10:00,
2013-07-10 03:15:00,70.7,68.9,29.98,SSW,207,0.0,1.0,94,0.00,,---,0.00,VWS V14.01,2013-07-10 07:15:00,
2013-07-10 03:20:00,70.6,68.8,29.98,SSW,207,0.0,0.0,94,0.00,,---,0.00,VWS V14.01,2013-07-10 07:20:00,
2013-07-10 03:25:00,70.5,69.0,29.98,SSW,207,1.0,2.0,95,0.00,,---,0.00,VWS V14.01,2013-07-10 07:25:00,
2013-07-10 03:31:00,70.4,68.9,29.98,SSW,207,0.0,0.0,95,0.00,,---,0.00,VWS V14.01,2013-07-10 07:31:00,
2013-07-10 03:36:00,70.4,68.9,29.98,SSW,207,1.0,2.0,95,0.00,,---,0.00,VWS V14.01,2013-07-10 07:36:00,
2013-07-10 03:42:00,70.3,68.8,29.98,SSW,207,0.0,2.0,95,0.00,,---,0.00,VWS V14.01,2013-07-10 07:42:00,
2013-07-10 03:47:00,70.2,68.7,29.99,SSW,207,0.0,2.0,95,0.00,,---,0.00,VWS V14.01,2013-07-10 07:47:00,
2013-07-10 03:52:00,70.1,68.6,29.99,SSW,207,1.0,1.0,95,0.00,,---,0.00,VWS V14.01,2013-07-10 07:52:00,
2013-07-10 03:57:00,70.1,68.6,29.99,SSW,207,0.0,4.0,95,0.00,,---,0.00,VWS V14.01,2013-07-10 07:57:00,
2013-07-10 04:02:00,70.0,68.5,29.99,SSW,207,0.0,2.0,95,0.00,,---,0.00,VWS V14.01,2013-07-10 08:02:00,
2013-07-10 04:07:00,69.9,68.4,29.99,SSW,207,0.0,3.0,95,0.00,,---,0.00,VWS V14.01,2013-07-10 08:07:00,
2013-07-10 04:12:00,70.0,68.5,29.99,SSW,207,0.0,2.0,95,0.00,,---,0.00,VWS V14.01,2013-07-10 08:12:00,
2013-07-10 04:17:00,70.1,68.9,29.99,SSW,207,0.0,3.0,96,0.00,,---,0.00,VWS V14.01,2013-07-10 08:17:00,
2013-07-10 04:23:00,70.1,68.6,29.99,SSW,207,0.0,0.0,95,0.00,,---,0.00,VWS V14.01,2013-07-10 08:23:00,
2013-07-10 04:28:00,70.1,68.6,29.99,SSW,207,2.0,2.0,95,0.00,,---,0.00,VWS V14.01,2013-07-10 08:28:00,
2013-07-10 04:33:00,70.1,68.6,29.99,SSW,207,0.0,1.0,95,0.00,,---,0.00,VWS V14.01,2013-07-10 08:33:00,
2013-07-10 04:38:00,70.1,68.6,29.99,SSW,207,0.0,2.0,95,0.00,,---,0.00,VWS V14.01,2013-07-10 08:38:00,
2013-07-10 04:43:00,70.2,69.0,29.99,SSW,207,0.0,2.0,96,0.00,,---,0.00,VWS V14.01,2013-07-10 08:43:00,
2013-07-10 04:48:00,70.2,69.0,29.99,SSW,207,0.0,2.0,96,0.00,,---,0.00,VWS V14.01,2013-07-10 08:48:00,
2013-07-10 04:53:00,70.2,69.0,29.99,SSW,207,0.0,2.0,96,0.00,,---,0.00,VWS V14.01,2013-07-10 08:53:00,
2013-07-10 04:58:00,70.3,69.1,29.99,SSW,207,0.0,2.0,96,0.00,,---,0.00,VWS V14.01,2013-07-10 08:58:00,
2013-07-10 05:03:00,70.3,69.1,29.99,SSW,207,0.0,3.0,96,0.00,,---,0.00,VWS V14.01,2013-07-10 09:03:00,
2013-07-10 05:09:00,70.3,69.1,29.99,SSW,207,0.0,3.0,96,0.00,,---,0.00,VWS V14.01,2013-07-10 09:09:00,
2013-07-10 05:14:00,70.4,69.2,29.99,SSW,207,0.0,5.0,96,0.00,,---,0.00,VWS V14.01,2013-07-10 09:14:00,
2013-07-10 05:19:00,70.4,69.2,29.99,SSW,207,2.0,5.0,96,0.00,,---,0.00,VWS V14.01,2013-07-10 09:19:00,
2013-07-10 05:24:00,70.4,69.2,29.99,SSW,207,1.0,3.0,96,0.00,,---,0.00,VWS V14.01,2013-07-10 09:24:00,
2013-07-10 05:29:00,70.6,69.4,29.99,SSW,207,0.0,4.0,96,0.00,,---,0.00,VWS V14.01,2013-07-10 09:29:00,
2013-07-10 05:34:00,70.6,68.8,29.99,SSW,207,2.0,5.0,94,0.00,,---,0.00,VWS V14.01,2013-07-10 09:34:00,
2013-07-10 05:39:00,70.7,69.5,29.99,SSW,207,0.0,5.0,96,0.00,,---,0.00,VWS V14.01,2013-07-10 09:39:00,
2013-07-10 05:44:00,70.8,69.6,29.99,SSW,207,4.0,6.0,96,0.00,,---,0.00,VWS V14.01,2013-07-10 09:44:00,
2013-07-10 05:50:00,70.8,69.6,29.99,SW,229,3.0,7.0,96,0.00,,---,0.00,VWS V14.01,2013-07-10 09:50:00,
2013-07-10 05:55:00,70.9,69.7,29.99,SSW,199,0.0,4.0,96,0.00,,---,0.00,VWS V14.01,2013-07-10 09:55:00,
2013-07-10 06:00:00,70.9,69.7,29.99,WSW,254,0.0,5.0,96,0.00,,---,0.00,VWS V14.01,2013-07-10 10:00:00,
2013-07-10 06:05:00,70.9,69.7,29.99,SSW,194,2.0,4.0,96,0.00,,---,0.00,VWS V14.01,2013-07-10 10:05:00,
2013-07-10 06:10:00,70.9,69.7,29.99,SW,224,3.0,4.0,96,0.00,,---,0.00,VWS V14.01,2013-07-10 10:10:00,
2013-07-10 06:15:00,70.9,69.7,29.99,SW,228,0.0,4.0,96,0.00,,---,0.00,VWS V14.01,2013-07-10 10:15:00,
2013-07-10 06:20:00,71.0,69.8,29.99,SW,229,0.0,4.0,96,0.00,,---,0.00,VWS V14.01,2013-07-10 10:20:00,
2013-07-10 06:25:00,71.0,69.8,29.99,SW,229,0.0,4.0,96,0.00,,---,0.00,VWS V14.01,2013-07-10 10:25:00,
2013-07-10 06:30:00,71.1,70.2,29.99,SSW,200,0.0,5.0,97,0.00,,---,0.00,VWS V14.01,2013-07-10 10:30:00,
2013-07-10 06:35:00,71.1,70.2,29.99,SSW,200,0.0,4.0,97,0.00,,---,0.00,VWS V14.01,2013-07-10 10:35:00,
2013-07-10 06:40:00,71.1,69.9,29.99,SSW,209,5.0,5.0,96,0.00,,---,0.00,VWS V14.01,2013-07-10 10:40:00,
2013-07-10 06:46:00,71.0,69.8,29.99,South,187,2.0,7.0,96,0.00,,---,0.00,VWS V14.01,2013-07-10 10:46:00,
2013-07-10 06:51:00,71.0,69.8,29.99,South,186,0.0,3.0,96,0.00,,---,0.00,VWS V14.01,2013-07-10 10:51:00,
2013-07-10 06:56:00,71.1,70.2,29.99,WSW,239,1.0,5.0,97,0.00,,---,0.00,VWS V14.01,2013-07-10 10:56:00,
2013-07-10 07:01:00,71.1,70.2,29.99,WSW,240,2.0,6.0,97,0.00,,---,0.00,VWS V14.01,2013-07-10 11:01:00,
2013-07-10 07:06:00,71.1,70.2,29.99,SSW,194,0.0,6.0,97,0.00,,---,0.00,VWS V14.01,2013-07-10 11:06:00,
2013-07-10 07:11:00,71.1,70.2,29.99,SW,227,0.0,3.0,97,0.00,,---,0.00,VWS V14.01,2013-07-10 11:11:00,
2013-07-10 07:16:00,71.1,70.2,29.99,SSW,192,3.0,6.0,97,0.00,,---,0.00,VWS V14.01,2013-07-10 11:16:00,
2013-07-10 07:21:00,71.0,70.1,29.99,SW,225,3.0,5.0,97,0.00,,---,0.00,VWS V14.01,2013-07-10 11:21:00,
2013-07-10 07:26:00,71.0,70.1,29.99,SW,219,2.0,5.0,97,0.00,,---,0.00,VWS V14.01,2013-07-10 11:26:00,
2013-07-10 07:32:00,71.1,69.9,29.99,SSW,197,4.0,6.0,96,0.00,,---,0.00,VWS V14.01,2013-07-10 11:32:00,
2013-07-10 07:37:00,71.2,70.0,29.99,WSW,256,1.0,6.0,96,0.00,,---,0.00,VWS V14.01,2013-07-10 11:37:00,
2013-07-10 07:42:00,71.3,70.1,29.99,SW,215,0.0,4.0,96,0.00,,---,0.00,VWS V14.01,2013-07-10 11:42:00,
2013-07-10 07:47:00,71.4,69.9,29.99,ESE,107,0.0,6.0,95,0.00,,---,0.00,VWS V14.01,2013-07-10 11:47:00,
2013-07-10 07:52:00,71.5,70.0,29.99,SSW,200,2.0,5.0,95,0.00,,---,0.00,VWS V14.01,2013-07-10 11:52:00,
2013-07-10 07:57:00,71.6,70.1,29.99,SSW,213,0.0,6.0,95,0.00,,---,0.00,VWS V14.01,2013-07-10 11:57:00,
2013-07-10 08:02:00,71.7,69.9,29.99,SSW,198,4.0,6.0,94,0.00,,---,0.00,VWS V14.01,2013-07-10 12:02:00,
2013-07-10 08:07:00,71.9,70.1,29.99,SW,233,2.0,6.0,94,0.00,,---,0.00,VWS V14.01,2013-07-10 12:07:00,
2013-07-10 08:12:00,72.2,70.1,29.99,SSE,168,2.0,3.0,93,0.00,,---,0.00,VWS V14.01,2013-07-10 12:12:00,
2013-07-10 08:17:00,72.3,70.2,29.99,SW,215,3.0,5.0,93,0.00,,---,0.00,VWS V14.01,2013-07-10 12:17:00,
2013-07-10 08:22:00,72.6,70.5,29.99,SSE,160,3.0,5.0,93,0.00,,---,0.00,VWS V14.01,2013-07-10 12:22:00,
2013-07-10 08:27:00,73.2,71.1,29.99,SSW,198,3.0,5.0,93,0.00,,---,0.00,VWS V14.01,2013-07-10 12:27:00,
2013-07-10 08:32:00,73.6,70.8,30.00,SSW,212,2.0,5.0,91,0.00,,---,0.00,VWS V14.01,2013-07-10 12:32:00,
2013-07-10 08:38:00,73.6,70.8,30.00,SSW,207,6.0,6.0,91,0.00,,---,0.00,VWS V14.01,2013-07-10 12:38:00,
2013-07-10 08:43:00,73.3,70.5,30.00,SW,225,0.0,3.0,91,0.00,,---,0.00,VWS V14.01,2013-07-10 12:43:00,
2013-07-10 08:48:00,73.7,71.2,30.00,SW,236,3.0,6.0,92,0.00,,---,0.00,VWS V14.01,2013-07-10 12:48:00,
2013-07-10 08:53:00,73.7,70.9,30.00,SSW,212,1.0,4.0,91,0.00,,---,0.00,VWS V14.01,2013-07-10 12:53:00,
2013-07-10 08:58:00,73.7,70.9,30.00,SSW,202,0.0,5.0,91,0.00,,---,0.00,VWS V14.01,2013-07-10 12:58:00,
2013-07-10 09:03:00,74.0,71.2,30.00,South,182,4.0,7.0,91,0.00,,---,0.00,VWS V14.01,2013-07-10 13:03:00,
2013-07-10 09:08:00,74.2,71.4,30.00,SSW,205,0.0,7.0,91,0.00,,---,0.00,VWS V14.01,2013-07-10 13:08:00,
2013-07-10 09:13:00,74.4,71.3,30.00,SW,227,3.0,6.0,90,0.00,,---,0.00,VWS V14.01,2013-07-10 13:13:00,
2013-07-10 09:18:00,75.1,72.0,30.00,SW,231,2.0,6.0,90,0.00,,---,0.00,VWS V14.01,2013-07-10 13:18:00,
2013-07-10 09:23:00,75.4,71.9,30.00,SW,231,4.0,6.0,89,0.00,,---,0.00,VWS V14.01,2013-07-10 13:23:00,
2013-07-10 09:29:00,75.7,72.2,30.00,SW,234,0.0,6.0,89,0.00,,---,0.00,VWS V14.01,2013-07-10 13:29:00,
2013-07-10 09:34:00,75.5,71.7,30.01,WSW,256,0.0,5.0,88,0.00,,---,0.00,VWS V14.01,2013-07-10 13:34:00,
2013-07-10 09:39:00,75.4,71.6,30.01,West,261,0.0,5.0,88,0.00,,---,0.00,VWS V14.01,2013-07-10 13:39:00,
2013-07-10 09:44:00,75.2,71.4,30.01,SSW,196,3.0,6.0,88,0.00,,---,0.00,VWS V14.01,2013-07-10 13:44:00,
2013-07-10 09:49:00,75.4,71.3,30.00,SW,225,4.0,7.0,87,0.00,,---,0.00,VWS V14.01,2013-07-10 13:49:00,
2013-07-10 09:54:00,75.7,72.2,30.00,SSW,209,0.0,5.0,89,0.00,,---,0.00,VWS V14.01,2013-07-10 13:54:00,
2013-07-10 09:59:00,76.7,72.2,30.00,SSW,192,3.0,6.0,86,0.00,,---,0.00,VWS V14.01,2013-07-10 13:59:00,
2013-07-10 10:04:00,76.8,71.9,29.99,South,180,0.0,4.0,85,0.00,,---,0.00,VWS V14.01,2013-07-10 14:04:00,
2013-07-10 10:09:00,77.2,72.3,29.99,SSW,205,2.0,9.0,85,0.00,,---,0.00,VWS V14.01,2013-07-10 14:09:00,
2013-07-10 10:14:00,77.0,72.2,29.99,South,191,4.0,5.0,85,0.00,,---,0.00,VWS V14.01,2013-07-10 14:14:00,
2013-07-10 10:19:00,76.6,72.1,29.99,South,170,6.0,8.0,86,0.00,,---,0.00,VWS V14.01,2013-07-10 14:19:00,
2013-07-10 10:24:00,77.4,73.2,29.99,SSW,206,2.0,6.0,87,0.00,,---,0.00,VWS V14.01,2013-07-10 14:24:00,
2013-07-10 10:29:00,77.3,72.1,29.99,SSW,196,2.0,8.0,84,0.00,,---,0.00,VWS V14.01,2013-07-10 14:29:00,
2013-07-10 10:34:00,76.9,72.4,29.99,SW,221,1.0,5.0,86,0.00,,---,0.00,VWS V14.01,2013-07-10 14:34:00,
2013-07-10 10:40:00,76.7,72.5,29.99,SSE,167,2.0,7.0,87,0.00,,---,0.00,VWS V14.01,2013-07-10 14:40:00,
2013-07-10 10:45:00,76.6,72.4,29.99,SSW,193,5.0,6.0,87,0.00,,---,0.00,VWS V14.01,2013-07-10 14:45:00,
2013-07-10 10:50:00,77.1,72.6,29.99,SSW,192,5.0,9.0,86,0.00,,---,0.00,VWS V14.01,2013-07-10 14:50:00,
2013-07-10 10:55:00,77.1,72.2,29.99,SSW,204,4.0,9.0,85,0.00,,---,0.00,VWS V14.01,2013-07-10 14:55:00,
2013-07-10 11:00:00,77.6,72.7,29.99,SSW,205,3.0,9.0,85,0.00,,---,0.00,VWS V14.01,2013-07-10 15:00:00,
2013-07-10 11:05:00,78.8,72.8,29.99,SSW,192,1.0,10.0,82,0.00,,---,0.00,VWS V14.01,2013-07-10 15:05:00,
2013-07-10 11:10:00,78.9,72.9,29.99,SSW,201,4.0,11.0,82,0.00,,---,0.00,VWS V14.01,2013-07-10 15:10:00,
2013-07-10 11:15:00,78.4,72.8,29.99,SW,230,2.0,10.0,83,0.00,,---,0.00,VWS V14.01,2013-07-10 15:15:00,
2013-07-10 11:20:00,77.8,72.6,29.99,WSW,240,0.0,1.0,84,0.00,,---,0.00,VWS V14.01,2013-07-10 15:20:00,
2013-07-10 11:26:00,78.0,73.1,29.99,South,186,0.0,6.0,85,0.00,,---,0.00,VWS V14.01,2013-07-10 15:26:00,
2013-07-10 11:31:00,78.2,72.6,29.99,SW,217,2.0,3.0,83,0.00,,---,0.00,VWS V14.01,2013-07-10 15:31:00,
2013-07-10 11:36:00,78.7,73.5,29.99,SW,234,5.0,6.0,84,0.00,,---,0.00,VWS V14.01,2013-07-10 15:36:00,
2013-07-10 11:41:00,79.6,72.9,29.99,South,180,4.0,4.0,80,0.00,,---,0.00,VWS V14.01,2013-07-10 15:41:00,
2013-07-10 11:46:00,79.7,73.0,29.99,SW,216,3.0,6.0,80,0.00,,---,0.00,VWS V14.01,2013-07-10 15:46:00,
2013-07-10 11:51:00,80.4,74.0,29.99,South,169,4.0,5.0,81,0.00,,---,0.00,VWS V14.01,2013-07-10 15:51:00,
2013-07-10 11:56:00,81.0,73.1,29.99,SSE,163,2.0,9.0,77,0.00,,---,0.00,VWS V14.01,2013-07-10 15:56:00,
2013-07-10 12:01:00,80.6,73.1,29.99,WSW,242,3.0,3.0,78,0.00,,---,0.00,VWS V14.01,2013-07-10 16:01:00,
2013-07-10 12:06:00,80.5,73.0,29.99,SSE,161,2.0,9.0,78,0.00,,---,0.00,VWS V14.01,2013-07-10 16:06:00,
2013-07-10 12:11:00,80.2,73.8,29.99,SSW,194,5.0,5.0,81,0.00,,---,0.00,VWS V14.01,2013-07-10 16:11:00,
2013-07-10 12:16:00,80.2,73.1,29.99,SSW,197,3.0,7.0,79,0.00,,---,0.00,VWS V14.01,2013-07-10 16:16:00,
2013-07-10 12:21:00,80.0,73.7,29.99,SSW,192,2.0,2.0,81,0.00,,---,0.00,VWS V14.01,2013-07-10 16:21:00,
2013-07-10 12:26:00,80.3,73.2,29.99,South,180,0.0,2.0,79,0.00,,---,0.00,VWS V14.01,2013-07-10 16:26:00,
2013-07-10 12:31:00,80.7,73.2,29.99,South,180,1.0,2.0,78,0.00,,---,0.00,VWS V14.01,2013-07-10 16:31:00,
2013-07-10 12:36:00,80.7,73.2,29.99,SSW,197,2.0,7.0,78,0.00,,---,0.00,VWS V14.01,2013-07-10 16:36:00,
2013-07-10 12:42:00,80.8,74.1,29.99,SSW,200,2.0,4.0,80,0.00,,---,0.00,VWS V14.01,2013-07-10 16:42:00,
2013-07-10 12:47:00,81.2,73.7,29.98,SSW,198,3.0,5.0,78,0.00,,---,0.00,VWS V14.01,2013-07-10 16:47:00,
2013-07-10 12:52:00,81.7,73.8,29.98,SSW,197,1.0,4.0,77,0.00,,---,0.00,VWS V14.01,2013-07-10 16:52:00,
2013-07-10 12:57:00,82.0,74.1,29.98,South,174,2.0,4.0,77,0.00,,---,0.00,VWS V14.01,2013-07-10 16:57:00,
2013-07-10 13:02:00,81.7,73.4,29.97,SSW,200,3.0,6.0,76,0.00,,---,0.00,VWS V14.01,2013-07-10 17:02:00,
2013-07-10 13:07:00,81.8,75.0,29.97,WNW,298,4.0,7.0,80,0.00,,---,0.00,VWS V14.01,2013-07-10 17:07:00,
2013-07-10 13:12:00,81.8,73.5,29.97,SW,217,1.0,5.0,76,0.00,,---,0.00,VWS V14.01,2013-07-10 17:12:00,
2013-07-10 13:17:00,82.4,74.1,29.97,SSW,197,2.0,7.0,76,0.00,,---,0.00,VWS V14.01,2013-07-10 17:17:00,
2013-07-10 13:22:00,83.1,73.6,29.97,SW,225,3.0,4.0,73,0.00,,---,0.00,VWS V14.01,2013-07-10 17:22:00,
2013-07-10 13:27:00,83.3,74.2,29.97,South,190,5.0,6.0,74,0.00,,---,0.00,VWS V14.01,2013-07-10 17:27:00,
2013-07-10 13:32:00,82.7,73.6,29.96,SSE,164,2.0,5.0,74,0.00,,---,0.00,VWS V14.01,2013-07-10 17:32:00,
2013-07-10 13:37:00,83.5,74.8,29.96,SSE,161,1.0,5.0,75,0.00,,---,0.00,VWS V14.01,2013-07-10 17:37:00,
2013-07-10 13:42:00,83.8,73.8,29.96,SSE,168,4.0,10.0,72,0.00,,---,0.00,VWS V14.01,2013-07-10 17:42:00,
2013-07-10 13:47:00,84.6,73.7,29.95,South,170,0.0,10.0,70,0.00,,---,0.00,VWS V14.01,2013-07-10 17:47:00,
2013-07-10 13:52:00,84.2,72.9,29.95,ESE,109,2.0,7.0,69,0.00,,---,0.00,VWS V14.01,2013-07-10 17:52:00,
2013-07-10 13:57:00,84.4,75.2,29.95,SSE,167,4.0,7.0,74,0.00,,---,0.00,VWS V14.01,2013-07-10 17:57:00,
2013-07-10 14:03:00,84.4,73.1,29.94,SSW,199,0.0,5.0,69,0.00,,---,0.00,VWS V14.01,2013-07-10 18:03:00,
2013-07-10 14:08:00,83.5,73.9,29.94,SSW,192,2.0,5.0,73,0.00,,---,0.00,VWS V14.01,2013-07-10 18:08:00,
2013-07-10 14:13:00,84.0,73.2,29.94,SSW,211,0.0,6.0,70,0.00,,---,0.00,VWS V14.01,2013-07-10 18:13:00,
2013-07-10 14:18:00,84.6,75.8,29.93,South,180,0.0,6.0,75,0.00,,---,0.00,VWS V14.01,2013-07-10 18:18:00,
2013-07-10 14:23:00,86.3,74.9,29.93,South,189,0.0,10.0,69,0.00,,---,0.00,VWS V14.01,2013-07-10 18:23:00,
2013-07-10 14:28:00,86.1,74.8,29.93,South,182,1.0,10.0,69,0.00,,---,0.00,VWS V14.01,2013-07-10 18:28:00,
2013-07-10 14:33:00,86.6,74.8,29.92,East,99,1.0,7.0,68,0.00,,---,0.00,VWS V14.01,2013-07-10 18:33:00,
2013-07-10 14:38:00,86.4,73.7,29.92,SSW,203,3.0,7.0,66,0.00,,---,0.00,VWS V14.01,2013-07-10 18:38:00,
2013-07-10 14:43:00,85.3,73.1,29.92,South,174,3.0,7.0,67,0.00,,---,0.00,VWS V14.01,2013-07-10 18:43:00,
2013-07-10 14:48:00,85.2,73.0,29.92,SSW,207,4.0,11.0,67,0.00,,---,0.00,VWS V14.01,2013-07-10 18:48:00,
2013-07-10 14:53:00,85.7,73.0,29.92,SSE,149,5.0,9.0,66,0.00,,---,0.00,VWS V14.01,2013-07-10 18:53:00,
2013-07-10 14:58:00,85.7,72.1,29.92,WSW,248,3.0,12.0,64,0.00,,---,0.00,VWS V14.01,2013-07-10 18:58:00,
2013-07-10 15:03:00,86.4,72.8,29.91,South,182,3.0,9.0,64,0.00,,---,0.00,VWS V14.01,2013-07-10 19:03:00,
2013-07-10 15:08:00,87.1,75.3,29.91,SSW,212,3.0,9.0,68,0.00,,---,0.00,VWS V14.01,2013-07-10 19:08:00,
2013-07-10 15:13:00,86.8,72.2,29.91,SSW,209,3.0,10.0,62,0.00,,---,0.00,VWS V14.01,2013-07-10 19:13:00,
2013-07-10 15:18:00,86.1,72.5,29.91,SSW,210,5.0,10.0,64,0.00,,---,0.00,VWS V14.01,2013-07-10 19:18:00,
2013-07-10 15:23:00,84.8,71.7,29.91,SSW,194,9.0,11.0,65,0.00,,---,0.00,VWS V14.01,2013-07-10 19:23:00,
2013-07-10 15:29:00,84.5,72.8,29.91,SW,224,8.0,11.0,68,0.00,,---,0.00,VWS V14.01,2013-07-10 19:29:00,
2013-07-10 15:34:00,84.9,74.0,29.90,SW,215,1.0,7.0,70,0.00,,---,0.00,VWS V14.01,2013-07-10 19:34:00,
2013-07-10 15:39:00,84.6,73.3,29.90,SSW,200,4.0,10.0,69,0.00,,---,0.00,VWS V14.01,2013-07-10 19:39:00,
2013-07-10 15:44:00,85.3,73.6,29.90,SSE,161,6.0,8.0,68,0.00,,---,0.00,VWS V14.01,2013-07-10 19:44:00,
2013-07-10 15:49:00,86.0,74.2,29.89,SW,216,2.0,9.0,68,0.00,,---,0.00,VWS V14.01,2013-07-10 19:49:00,
2013-07-10 15:54:00,85.3,73.1,29.89,SSW,198,6.0,9.0,67,0.00,,---,0.00,VWS V14.01,2013-07-10 19:54:00,
2013-07-10 15:59:00,85.1,73.4,29.89,SSW,211,6.0,9.0,68,0.00,,---,0.00,VWS V14.01,2013-07-10 19:59:00,
2013-07-10 16:04:00,85.0,73.7,29.88,South,189,3.0,6.0,69,0.00,,---,0.00,VWS V14.01,2013-07-10 20:04:00,
2013-07-10 16:09:00,85.0,73.7,29.88,SW,236,4.0,10.0,69,0.00,,---,0.00,VWS V14.01,2013-07-10 20:09:00,
2013-07-10 16:14:00,85.5,74.6,29.88,South,185,1.0,4.0,70,0.00,,---,0.00,VWS V14.01,2013-07-10 20:14:00,
2013-07-10 16:19:00,86.7,74.4,29.89,SSW,213,2.0,10.0,67,0.00,,---,0.00,VWS V14.01,2013-07-10 20:19:00,
2013-07-10 16:24:00,86.4,73.2,29.89,SSW,199,4.0,11.0,65,0.00,,---,0.00,VWS V14.01,2013-07-10 20:24:00,
2013-07-10 16:29:00,86.2,73.5,29.89,SSW,213,4.0,11.0,66,0.00,,---,0.00,VWS V14.01,2013-07-10 20:29:00,
2013-07-10 16:34:00,86.3,74.5,29.88,SSW,193,3.0,7.0,68,0.00,,---,0.00,VWS V14.01,2013-07-10 20:34:00,
2013-07-10 16:39:00,86.2,74.8,29.88,South,186,2.0,7.0,69,0.00,,---,0.00,VWS V14.01,2013-07-10 20:39:00,
2013-07-10 16:44:00,86.4,74.2,29.88,SSW,208,4.0,9.0,67,0.00,,---,0.00,VWS V14.01,2013-07-10 20:44:00,
2013-07-10 16:49:00,85.8,73.1,29.88,SSW,209,5.0,9.0,66,0.00,,---,0.00,VWS V14.01,2013-07-10 20:49:00,
2013-07-10 16:54:00,84.9,73.6,29.88,SW,227,0.0,9.0,69,0.00,,---,0.00,VWS V14.01,2013-07-10 20:54:00,
2013-07-10 16:59:00,83.9,72.2,29.88,South,188,4.0,11.0,68,0.00,,---,0.00,VWS V14.01,2013-07-10 20:59:00,
2013-07-10 17:04:00,84.2,73.4,29.87,South,188,7.0,7.0,70,0.00,,---,0.00,VWS V14.01,2013-07-10 21:04:00,
2013-07-10 17:09:00,84.2,73.4,29.87,South,181,3.0,11.0,70,0.00,,---,0.00,VWS V14.01,2013-07-10 21:09:00,
2013-07-10 17:14:00,83.9,72.7,29.87,SSE,158,5.0,12.0,69,0.00,,---,0.00,VWS V14.01,2013-07-10 21:14:00,
2013-07-10 17:19:00,84.6,73.3,29.87,SW,215,6.0,13.0,69,0.00,,---,0.00,VWS V14.01,2013-07-10 21:19:00,
2013-07-10 17:24:00,84.6,73.3,29.87,South,190,5.0,9.0,69,0.00,,---,0.00,VWS V14.01,2013-07-10 21:24:00,
2013-07-10 17:29:00,84.0,72.7,29.88,SE,144,0.0,10.0,69,0.00,,---,0.00,VWS V14.01,2013-07-10 21:29:00,
2013-07-10 17:34:00,83.3,72.9,29.88,South,191,3.0,6.0,71,0.00,,---,0.00,VWS V14.01,2013-07-10 21:34:00,
2013-07-10 17:39:00,82.7,72.8,29.88,South,184,6.0,11.0,72,0.00,,---,0.00,VWS V14.01,2013-07-10 21:39:00,
2013-07-10 17:45:00,82.4,72.5,29.87,South,180,0.0,6.0,72,0.00,,---,0.00,VWS V14.01,2013-07-10 21:45:00,
2013-07-10 17:50:00,82.1,72.6,29.87,SW,233,2.0,6.0,73,0.00,,---,0.00,VWS V14.01,2013-07-10 21:50:00,
2013-07-10 17:55:00,81.8,72.7,29.87,South,189,4.0,4.0,74,0.00,,---,0.00,VWS V14.01,2013-07-10 21:55:00,
2013-07-10 18:00:00,81.6,73.3,29.86,SSW,192,1.0,4.0,76,0.00,,---,0.00,VWS V14.01,2013-07-10 22:00:00,
2013-07-10 18:05:00,81.4,73.5,29.86,SW,226,0.0,3.0,77,0.00,,---,0.00,VWS V14.01,2013-07-10 22:05:00,
2013-07-10 18:10:00,81.1,74.3,29.86,SSW,196,0.0,3.0,80,0.00,,---,0.00,VWS V14.01,2013-07-10 22:10:00,
2013-07-10 18:15:00,80.9,74.2,29.86,WSW,248,0.0,2.0,80,0.00,,---,0.00,VWS V14.01,2013-07-10 22:15:00,
2013-07-10 18:20:00,80.8,74.8,29.86,WNW,292,0.0,2.0,82,0.00,,---,0.00,VWS V14.01,2013-07-10 22:20:00,
2013-07-10 18:25:00,80.5,73.4,29.86,East,88,0.0,3.0,79,0.00,,---,0.00,VWS V14.01,2013-07-10 22:25:00,
2013-07-10 18:30:00,80.3,73.2,29.86,ESE,103,0.0,1.0,79,0.00,,---,0.00,VWS V14.01,2013-07-10 22:30:00,
2013-07-10 18:35:00,80.2,73.1,29.86,ESE,103,0.0,2.0,79,0.00,,---,0.00,VWS V14.01,2013-07-10 22:35:00,
2013-07-10 18:40:00,80.2,73.1,29.86,ESE,107,0.0,0.0,79,0.00,,---,0.00,VWS V14.01,2013-07-10 22:40:00,
2013-07-10 18:45:00,80.1,73.4,29.86,ESE,107,0.0,1.0,80,0.00,,---,0.00,VWS V14.01,2013-07-10 22:45:00,
2013-07-10 18:51:00,79.8,73.4,29.86,ESE,107,0.0,0.0,81,0.00,,---,0.00,VWS V14.01,2013-07-10 22:51:00,
2013-07-10 18:56:00,79.7,73.4,29.86,SW,214,0.0,3.0,81,0.00,,---,0.00,VWS V14.01,2013-07-10 22:56:00,
2013-07-10 19:01:00,79.6,74.0,29.86,SW,214,0.0,0.0,83,0.00,,---,0.00,VWS V14.01,2013-07-10 23:01:00,
2013-07-10 19:06:00,79.4,73.4,29.86,SW,214,0.0,1.0,82,0.00,,---,0.00,VWS V14.01,2013-07-10 23:06:00,
2013-07-10 19:11:00,79.3,73.3,29.86,SW,214,0.0,1.0,82,0.00,,---,0.00,VWS V14.01,2013-07-10 23:11:00,
2013-07-10 19:16:00,79.3,73.7,29.87,SW,214,0.0,1.0,83,0.00,,---,0.00,VWS V14.01,2013-07-10 23:16:00,
2013-07-10 19:21:00,79.0,73.4,29.87,SW,214,0.0,0.0,83,0.00,,---,0.00,VWS V14.01,2013-07-10 23:21:00,
2013-07-10 19:26:00,78.9,73.7,29.87,SW,214,0.0,1.0,84,0.00,,---,0.00,VWS V14.01,2013-07-10 23:26:00,
2013-07-10 19:31:00,78.7,73.5,29.88,SW,214,0.0,0.0,84,0.00,,---,0.00,VWS V14.01,2013-07-10 23:31:00,
2013-07-10 19:36:00,78.6,74.1,29.88,SW,214,0.0,0.0,86,0.00,,---,0.00,VWS V14.01,2013-07-10 23:36:00,
2013-07-10 19:42:00,78.3,73.4,29.88,SW,214,0.0,0.0,85,0.00,,---,0.00,VWS V14.01,2013-07-10 23:42:00,
2013-07-10 19:47:00,78.1,73.9,29.89,SW,214,0.0,0.0,87,0.00,,---,0.00,VWS V14.01,2013-07-10 23:47:00,
2013-07-10 19:52:00,77.9,73.4,29.89,SSW,210,0.0,0.0,86,0.00,,---,0.00,VWS V14.01,2013-07-10 23:52:00,
2013-07-10 19:57:00,78.0,73.1,29.89,South,179,0.0,0.0,85,0.00,,---,0.00,VWS V14.01,2013-07-10 23:57:00,
2013-07-10 20:02:00,78.0,73.5,29.88,South,179,0.0,1.0,86,0.00,,---,0.00,VWS V14.01,2013-07-11 00:02:00,
2013-07-10 20:07:00,77.9,73.0,29.88,SSW,199,0.0,3.0,85,0.00,,---,0.00,VWS V14.01,2013-07-11 00:07:00,
2013-07-10 20:12:00,77.9,72.7,29.88,SSW,199,0.0,1.0,84,0.00,,---,0.00,VWS V14.01,2013-07-11 00:12:00,
2013-07-10 20:17:00,77.9,72.7,29.88,SSW,199,0.0,1.0,84,0.00,,---,0.00,VWS V14.01,2013-07-11 00:17:00,
2013-07-10 20:22:00,77.9,72.7,29.88,SSW,199,1.0,1.0,84,0.00,,---,0.00,VWS V14.01,2013-07-11 00:22:00,
2013-07-10 20:27:00,77.9,73.4,29.88,SSW,199,0.0,2.0,86,0.00,,---,0.00,VWS V14.01,2013-07-11 00:27:00,
2013-07-10 20:32:00,77.8,73.3,29.88,SSW,199,0.0,0.0,86,0.00,,---,0.00,VWS V14.01,2013-07-11 00:32:00,
2013-07-10 20:38:00,77.7,73.5,29.88,SSW,199,0.0,1.0,87,0.00,,---,0.00,VWS V14.01,2013-07-11 00:38:00,
2013-07-10 20:43:00,77.6,73.4,29.88,SSW,199,0.0,2.0,87,0.00,,---,0.00,VWS V14.01,2013-07-11 00:43:00,
2013-07-10 20:48:00,77.6,73.1,29.89,SSW,199,0.0,3.0,86,0.00,,---,0.00,VWS V14.01,2013-07-11 00:48:00,
2013-07-10 20:53:00,77.6,73.1,29.89,WSW,251,3.0,5.0,86,0.00,,---,0.00,VWS V14.01,2013-07-11 00:53:00,
2013-07-10 20:58:00,77.5,72.6,29.89,SSW,198,1.0,6.0,85,0.00,,---,0.00,VWS V14.01,2013-07-11 00:58:00,
2013-07-10 21:03:00,77.4,72.5,29.90,SW,221,3.0,6.0,85,0.00,,---,0.00,VWS V14.01,2013-07-11 01:03:00,
2013-07-10 21:08:00,77.2,72.3,29.90,SSE,153,0.0,6.0,85,0.00,,---,0.00,VWS V14.01,2013-07-11 01:08:00,
2013-07-10 21:13:00,76.9,72.1,29.90,SSE,153,0.0,1.0,85,0.00,,---,0.00,VWS V14.01,2013-07-11 01:13:00,
2013-07-10 21:18:00,76.5,72.0,29.90,SSE,153,0.0,2.0,86,0.00,,---,0.00,VWS V14.01,2013-07-11 01:18:00,
2013-07-10 21:23:00,76.2,72.1,29.90,SSE,154,0.0,3.0,87,0.00,,---,0.00,VWS V14.01,2013-07-11 01:23:00,
2013-07-10 21:29:00,76.0,71.9,29.90,SSW,209,2.0,4.0,87,0.00,,---,0.00,VWS V14.01,2013-07-11 01:29:00,
2013-07-10 21:34:00,75.7,71.9,29.90,South,174,3.0,6.0,88,0.00,,---,0.00,VWS V14.01,2013-07-11 01:34:00,
2013-07-10 21:39:00,75.2,71.4,29.90,SSE,155,0.0,6.0,88,0.00,,---,0.00,VWS V14.01,2013-07-11 01:39:00,
2013-07-10 21:44:00,74.9,71.4,29.90,SSE,155,0.0,0.0,89,0.00,,---,0.00,VWS V14.01,2013-07-11 01:44:00,
2013-07-10 21:49:00,74.7,71.2,29.90,SSE,155,0.0,1.0,89,0.00,,---,0.00,VWS V14.01,2013-07-11 01:49:00,
2013-07-10 21:54:00,74.6,71.2,29.90,SSE,155,0.0,1.0,89,0.00,,---,0.00,VWS V14.01,2013-07-11 01:54:00,
2013-07-10 21:59:00,74.4,71.3,29.90,SSE,155,0.0,1.0,90,0.00,,---,0.00,VWS V14.01,2013-07-11 01:59:00,
2013-07-10 22:04:00,74.3,71.2,29.90,SSE,155,1.0,2.0,90,0.00,,---,0.00,VWS V14.01,2013-07-11 02:04:00,
2013-07-10 22:09:00,74.1,71.0,29.90,SSE,155,3.0,3.0,90,0.00,,---,0.00,VWS V14.01,2013-07-11 02:09:00,
2013-07-10 22:14:00,74.0,70.9,29.91,SSW,194,3.0,4.0,90,0.00,,---,0.00,VWS V14.01,2013-07-11 02:14:00,
2013-07-10 22:16:00,74.0,71.2,29.91,SSW,197,0.0,5.0,91,0.00,,---,0.00,VWS V14.01,2013-07-11 02:16:00,
2013-07-10 22:21:00,73.8,71.0,29.91,SSW,193,0.0,0.0,91,0.00,,---,0.00,VWS V14.01,2013-07-11 02:21:00,
2013-07-10 22:26:00,73.7,70.9,29.91,SSW,193,2.0,2.0,91,0.00,,---,0.00,VWS V14.01,2013-07-11 02:26:00,
2013-07-10 22:31:00,73.7,71.2,29.91,SSW,193,2.0,2.0,92,0.00,,---,0.00,VWS V14.01,2013-07-11 02:31:00,
2013-07-10 22:36:00,73.6,71.1,29.91,SSW,193,0.0,3.0,92,0.00,,---,0.00,VWS V14.01,2013-07-11 02:36:00,
2013-07-10 22:42:00,73.5,71.0,29.91,SSW,192,0.0,2.0,92,0.00,,---,0.00,VWS V14.01,2013-07-11 02:42:00,
2013-07-10 22:47:00,73.4,70.9,29.91,SSW,192,2.0,4.0,92,0.00,,---,0.00,VWS V14.01,2013-07-11 02:47:00,
2013-07-10 22:52:00,73.2,70.7,29.91,SSW,192,0.0,0.0,92,0.00,,---,0.00,VWS V14.01,2013-07-11 02:52:00,
2013-07-10 22:57:00,73.1,70.6,29.91,SSW,202,0.0,4.0,92,0.00,,---,0.00,VWS V14.01,2013-07-11 02:57:00,
2013-07-10 23:02:00,73.0,70.5,29.91,South,179,0.0,3.0,92,0.00,,---,0.00,VWS V14.01,2013-07-11 03:02:00,
2013-07-10 23:07:00,73.0,70.5,29.91,South,179,0.0,3.0,92,0.00,,---,0.00,VWS V14.01,2013-07-11 03:07:00,
2013-07-10 23:12:00,72.9,70.4,29.91,South,179,0.0,1.0,92,0.00,,---,0.00,VWS V14.01,2013-07-11 03:12:00,
2013-07-10 23:17:00,72.9,70.8,29.91,South,175,0.0,4.0,93,0.00,,---,0.00,VWS V14.01,2013-07-11 03:17:00,
2013-07-10 23:23:00,72.8,70.7,29.91,South,175,0.0,1.0,93,0.00,,---,0.00,VWS V14.01,2013-07-11 03:23:00,
2013-07-10 23:28:00,72.8,70.7,29.91,South,175,0.0,3.0,93,0.00,,---,0.00,VWS V14.01,2013-07-11 03:28:00,
2013-07-10 23:33:00,72.8,70.7,29.90,South,175,0.0,0.0,93,0.00,,---,0.00,VWS V14.01,2013-07-11 03:33:00,
2013-07-10 23:38:00,72.7,70.6,29.90,South,175,0.0,0.0,93,0.00,,---,0.00,VWS V14.01,2013-07-11 03:38:00,
2013-07-10 23:43:00,72.7,70.6,29.90,South,172,0.0,3.0,93,0.00,,---,0.00,VWS V14.01,2013-07-11 03:43:00,
2013-07-10 23:48:00,72.5,70.4,29.89,South,172,0.0,3.0,93,0.00,,---,0.00,VWS V14.01,2013-07-11 03:48:00,
2013-07-10 23:53:00,72.4,70.6,29.89,South,172,0.0,2.0,94,0.00,,---,0.00,VWS V14.01,2013-07-11 03:53:00,
2013-07-10 23:58:00,72.3,70.5,29.89,South,172,0.0,2.0,94,0.00,,---,0.00,VWS V14.01,2013-07-11 03:58:00,